FW4213 Weather Reports


Display with metric or nautical units.
time (UTC)temp
F
wind
direction
speed
MPH
gust
MPH
rain 1hr
in
rain 24hr
in
rain mn
in
humidity
%
barometer
mb
20260502203036 67 187 1.0 3.0 0.00 0.00 0.00 67 1015.7
20260502200028 65 329 2.0 4.0 0.00 0.00 0.00 68 1015.9
20260502194532 65 344 2.0 5.0 0.00 0.00 0.00 68 1016.3
20260502193141 64 2 3.0 5.0 0.00 0.00 0.00 71 1016.7
20260502191534 64 345 3.0 7.0 0.00 0.00 0.00 71 1017.0
20260502190029 65 347 3.0 7.0 0.00 0.00 0.00 68 1017.0
20260502184532 64 349 2.0 7.0 0.00 0.00 0.00 71 1017.2
20260502183141 61 340 2.0 6.0 0.00 0.00 0.00 74 1017.3
20260502181530 60 331 2.0 7.0 0.00 0.00 0.00 76 1017.2
20260502163030 55 344 0.0 3.0 0.00 0.00 0.00 85 1017.9
20260502161531 55 325 2.0 6.0 0.00 0.00 0.00 84 1017.9
20260502151553 53 246 0.0 3.0 0.00 0.00 0.00 87 1017.5
20260502121529 53 327 1.0 5.0 0.00 0.00 0.00 84 1016.0
20260502113036 55 325 3.0 7.0 0.00 0.00 0.00 82 1015.9
20260502110047 53 116 4.0 9.0 0.00 0.00 0.00 86 1016.1
20260502103035 54 84 1.0 3.0 0.00 0.00 0.00 82 1016.7
20260502091532 54 314 0.0 4.0 0.00 0.00 0.00 83 1016.9
20260502070030 59 202 0.0 5.0 0.00 0.00 0.00 70 1016.7
20260502063034 59 349 1.0 4.0 0.00 0.00 0.00 71 1016.6
20260502060036 62 18 0.0 3.0 0.00 0.00 0.00 65 1016.5
20260502054536 61 334 1.0 5.0 0.00 0.00 0.00 67 1016.3
20260502053030 61 22 2.0 5.0 0.00 0.00 0.00 68 1016.2
20260502044645 62 174 0.0 4.0 0.00 0.00 0.00 65 1016.0
20260502041532 65 241 1.0 7.0 0.00 0.00 0.00 60 1015.5
20260502040036 65 322 3.0 8.0 0.00 0.00 0.00 62 1015.0
20260502031532 65 157 0.0 4.0 0.00 0.00 0.00 61 1015.1
20260502030142 66 308 0.0 3.0 0.00 0.00 0.00 59 1014.7
20260502024537 68 129 0.0 5.0 0.00 0.00 0.00 57 1014.3
20260502023032 69 162 0.0 3.0 0.00 0.00 0.00 56 1014.1
20260502021532 69 33 0.0 7.0 0.00 0.00 0.00 54 1014.0
20260502020036 70 282 0.0 4.0 0.00 0.00 0.00 53 1013.9
20260502014534 71 7 0.0 5.0 0.00 0.00 0.00 52 1013.8
20260502013031 72 309 1.0 6.0 0.00 0.00 0.00 49 1013.8
20260502010035 75 21 2.0 3.0 0.00 0.00 0.00 47 1013.7
20260502004529 77 20 1.0 3.0 0.00 0.00 0.00 47 1013.7
20260502003111 76 23 1.0 3.0 0.00 0.00 0.00 46 1013.8
20260502001535 74 334 0.0 4.0 0.00 0.00 0.00 45 1013.9
20260502000030 75 318 2.0 7.0 0.00 0.00 0.00 43 1013.9
20260501233033 79 360 2.0 5.0 0.00 0.00 0.00 40 1014.3
20260501231529 78 345 2.0 5.0 0.00 0.00 0.00 39 1014.5
20260501230032 79 321 1.0 4.0 0.00 0.00 0.00 38 1014.8
20260501224533 78 323 1.0 5.0 0.00 0.00 0.00 38 1015.0
20260501223031 78 327 2.0 4.0 0.00 0.00 0.00 39 1015.3
20260501221533 77 316 2.0 4.0 0.00 0.00 0.00 38 1015.5
20260501220035 77 328 0.0 3.0 0.00 0.00 0.00 37 1015.7
20260501214641 78 313 2.0 5.0 0.00 0.00 0.00 38 1015.8
20260501213031 78 291 2.0 6.0 0.00 0.00 0.00 38 1016.0
20260501211533 77 320 2.0 5.0 0.00 0.00 0.00 38 1016.2
20260501210142 76 275 2.0 5.0 0.00 0.00 0.00 39 1016.4
20260501204533 74 300 1.0 4.0 0.00 0.00 0.00 42 1016.6